Regional Weather Roundup
Issued by NWS

Home | Current Version | Previous Version | Text Only | Print | Product List | Glossary On
Versions: 1 2 3 4 5 6 7 8 9 10 11 12 13 14 15 16 17 18 19 20 21 22 23 24 25 26 27 28 29 30 31 32 33 34 35 36 37 38 39 40 41 42 43 44 45 46 47 48 49 50
000
ASUS42 KFFC 301103
RWRGA
WEATHER ROUNDUP FOR GEORGIA
NATIONAL WEATHER SERVICE PEACHTREE CITY GA
700 AM EDT MON MAY 30 2016

NOTE: "FAIR" INDICATES FEW OR NO CLOUDS BELOW 12,000 FEET WITH NO
SIGNIFICANT WEATHER AND/OR OBSTRUCTIONS TO VISIBILITY.

* = USE WITH CAUTION. THE STATIONS MARKED WITH AN ASTERISK MAY NOT
REPORT WEATHER SUCH AS PRECIPITATION, FOG, OR THUNDER AND ARE NOT
QUALITY CONTROLLED BY NWS.

THE REMARK "TC" DENOTES TEMPERATURE READING IN DEGREES CELSIUS.

GAZ001>058-301200-
NORTH GEORGIA

CITY           SKY/WX    TMP DP  RH WIND       PRES   REMARKS
ATLANTA        PTCLDY    69  62  78 S3        30.03S
ATHENS         CLEAR     62  61  96 CALM      30.03R
CHAMBLEE       CLEAR     64  60  87 CALM      30.03S
ROME           CLEAR     64  62  93 CALM      30.03R
WEST ATLANTA   CLEAR     64  61  90 CALM      30.03S
GAINESVILLE    CLEAR     63  62  97 CALM      30.06R
CARTERSVILLE   CLEAR     60  60 100 CALM      30.04R


CITY           SKY/WX    TMP DP  RH WIND       PRES   REMARKS
DALTON*        PTCLDY    63  63 100 CALM      30.03F
LAWRENCEVILLE* CLEAR     63  61  94 CALM      30.04
MARIETTA       PTCLDY    66  63  91 CALM      30.04R
KENNESAW*      CLEAR     66  63  88 CALM      30.03
CANTON*        CLEAR     61  59  94 CALM      30.06R FOG
BLAIRSVILLE*   FOG      N/A N/A N/A MISG      30.09R VSB<1/4
$$

GAZ059>098-102>109-301200-
CENTRAL GEORGIA

CITY           SKY/WX    TMP DP  RH WIND       PRES   REMARKS
AUGUSTA-BUSH   MOCLDY    67  63  87 NW7       29.98R
AUGUSTA-DANIEL CLOUDY    67  62  84 NW7       30.00R
COLUMBUS       CLEAR     69  63  81 CALM      30.01R
MACON          CLEAR     64  62  93 CALM      30.01S
ROBINS AFB     CLEAR     65  64  97 N1        30.01R


CITY           SKY/WX    TMP DP  RH WIND       PRES   REMARKS
LAGRANGE*      CLEAR     64  64 100 CALM      30.03R
SYLVANIA*      CLOUDY    68  66  92 NW6       29.98R
MILLEDGEVILLE* CLEAR     63  61  94 CALM      30.02R
$$

GAZ099>101-110>166-301200-
SOUTH GEORGIA

CITY           SKY/WX    TMP DP  RH WIND       PRES   REMARKS
SAVANNAH       CLOUDY    68  63  84 W7        29.97R
VALDOSTA       MOCLDY    69  68  96 CALM      29.99S
ALMA           CLEAR     64  63  96 CALM      30.00R
ST SIMONS      CLOUDY    72  63  73 VRB5      29.98R
FT STEWART     CLOUDY    70  62  75 CALM      29.96R
ALBANY         CLEAR     68  65  90 CALM      30.02R
HUNTER AFB     MOCLDY    68  67  96 W5        29.94S
MOODY AFB      CLEAR     70  64  83 CALM      29.98R
BRUNSWICK      CLOUDY    75  64  69 W6        29.99R


CITY           SKY/WX    TMP DP  RH WIND       PRES   REMARKS
BAINBRIDGE*    CLEAR     72  68  88 CALM      30.00R
MOULTRIE*      CLEAR     70  66  88 CALM      30.00S
VIDALIA*       MOCLDY    70  61  73 NW5       30.00R
WAYCROSS*      CLEAR     66  64  92 CALM      30.00R
DOUGLAS*       CLEAR     68  66  94 CALM      30.02R
$$



USA.gov is the U.S. government's official web portal to all federal, state and local government web resources and services.